| time (UTC) | temp F | wind direction | speed MPH | gust MPH | rain 1hr in | rain 24hr in | rain mn in | humidity % | barometer mb |
| 20260507084616 | 44 | 225 | 4.0 | 8.0 | 0.00 | 0.00 | 0.00 | 80 | 1014.3 |
| 20260507083617 | 45 | 225 | 5.0 | 8.0 | 0.00 | 0.00 | 0.00 | 80 | 1014.5 |
| 20260507082617 | 45 | 248 | 3.0 | 6.0 | 0.00 | 0.00 | 0.00 | 80 | 1014.8 |
| 20260507081637 | 45 | 203 | 4.0 | 6.0 | 0.00 | 0.00 | 0.00 | 79 | 1014.9 |
| 20260507080617 | 45 | 270 | 4.0 | 10.0 | 0.00 | 0.00 | 0.00 | 79 | 1015.0 |
| 20260507075617 | 46 | 225 | 3.0 | 8.0 | 0.00 | 0.00 | 0.00 | 79 | 1015.1 |
| 20260507074617 | 46 | 225 | 5.0 | 10.0 | 0.00 | 0.00 | 0.00 | 79 | 1015.3 |
| 20260507073616 | 46 | 225 | 2.0 | 5.0 | 0.00 | 0.00 | 0.00 | 79 | 1015.6 |
| 20260507072617 | 45 | 225 | 6.0 | 10.0 | 0.00 | 0.00 | 0.00 | 79 | 1015.9 |
| 20260507071616 | 45 | 248 | 2.0 | 4.0 | 0.00 | 0.00 | 0.00 | 79 | 1015.9 |
| 20260507070616 | 45 | 203 | 4.0 | 10.0 | 0.00 | 0.00 | 0.00 | 78 | 1016.0 |
| 20260507065636 | 45 | 225 | 3.0 | 7.0 | 0.00 | 0.00 | 0.00 | 78 | 1016.2 |
| 20260507064616 | 46 | 248 | 4.0 | 5.0 | 0.00 | 0.00 | 0.00 | 77 | 1016.2 |
| 20260507063636 | 46 | 248 | 5.0 | 10.0 | 0.00 | 0.00 | 0.00 | 76 | 1016.3 |
| 20260507062616 | 46 | 248 | 4.0 | 6.0 | 0.00 | 0.00 | 0.00 | 75 | 1016.4 |
| 20260507061616 | 47 | 225 | 5.0 | 8.0 | 0.00 | 0.00 | 0.00 | 74 | 1016.3 |
| 20260507060636 | 47 | 225 | 5.0 | 7.0 | 0.00 | 0.00 | 0.00 | 72 | 1016.5 |
| 20260507055617 | 47 | 225 | 6.0 | 11.0 | 0.00 | 0.00 | 0.00 | 70 | 1016.5 |
| 20260507054616 | 47 | 203 | 4.0 | 8.0 | 0.00 | 0.00 | 0.00 | 69 | 1016.7 |
| 20260507053616 | 48 | 225 | 4.0 | 10.0 | 0.00 | 0.00 | 0.00 | 67 | 1016.6 |
| 20260507052616 | 48 | 225 | 4.0 | 9.0 | 0.00 | 0.00 | 0.00 | 66 | 1016.7 |
| 20260507051616 | 48 | 203 | 6.0 | 12.0 | 0.00 | 0.00 | 0.00 | 67 | 1016.8 |
| 20260507050616 | 48 | 270 | 3.0 | 8.0 | 0.00 | 0.00 | 0.00 | 67 | 1016.8 |
| 20260507045615 | 48 | 248 | 3.0 | 6.0 | 0.00 | 0.00 | 0.00 | 66 | 1016.9 |
| 20260507044617 | 49 | 225 | 3.0 | 6.0 | 0.00 | 0.00 | 0.00 | 65 | 1017.0 |
| 20260507043617 | 49 | 248 | 3.0 | 5.0 | 0.00 | 0.00 | 0.00 | 64 | 1017.1 |
| 20260507042617 | 50 | 270 | 6.0 | 11.0 | 0.00 | 0.00 | 0.00 | 63 | 1017.2 |
| 20260507041617 | 50 | 225 | 4.0 | 7.0 | 0.00 | 0.00 | 0.00 | 64 | 1017.3 |
| 20260507040617 | 50 | 225 | 6.0 | 10.0 | 0.00 | 0.00 | 0.00 | 64 | 1017.3 |
| 20260507035617 | 50 | 248 | 5.0 | 11.0 | 0.00 | 0.00 | 0.00 | 64 | 1017.4 |
| 20260507034617 | 51 | 248 | 2.0 | 7.0 | 0.00 | 0.00 | 0.00 | 63 | 1017.4 |
| 20260507033657 | 51 | 225 | 4.0 | 7.0 | 0.00 | 0.00 | 0.00 | 63 | 1017.6 |
| 20260507032637 | 51 | 248 | 5.0 | 9.0 | 0.00 | 0.00 | 0.00 | 62 | 1017.6 |
| 20260507031617 | 51 | 225 | 4.0 | 9.0 | 0.00 | 0.00 | 0.00 | 61 | 1017.4 |
| 20260507030617 | 52 | 248 | 3.0 | 5.0 | 0.00 | 0.00 | 0.00 | 60 | 1017.6 |
| 20260507025637 | 52 | 225 | 4.0 | 8.0 | 0.00 | 0.00 | 0.00 | 59 | 1017.6 |
| 20260507024617 | 52 | 225 | 6.0 | 10.0 | 0.00 | 0.00 | 0.00 | 58 | 1017.3 |
| 20260507023617 | 52 | 225 | 4.0 | 6.0 | 0.00 | 0.00 | 0.00 | 56 | 1017.3 |
| 20260507022617 | 53 | 225 | 3.0 | 5.0 | 0.00 | 0.00 | 0.00 | 52 | 1017.2 |
| 20260507021617 | 54 | 270 | 3.0 | 6.0 | 0.00 | 0.00 | 0.00 | 51 | 1017.1 |
| 20260507020617 | 54 | 203 | 1.0 | 3.0 | 0.00 | 0.00 | 0.00 | 50 | 1017.0 |
| 20260507015617 | 55 | 248 | 3.0 | 6.0 | 0.00 | 0.00 | 0.00 | 50 | 1017.1 |
| 20260507014617 | 55 | 225 | 6.0 | 8.0 | 0.00 | 0.00 | 0.00 | 50 | 1017.0 |
| 20260507013617 | 55 | 248 | 2.0 | 4.0 | 0.00 | 0.00 | 0.00 | 48 | 1017.0 |
| 20260507012617 | 56 | 270 | 2.0 | 4.0 | 0.00 | 0.00 | 0.00 | 46 | 1017.0 |
| 20260507011617 | 56 | 270 | 2.0 | 5.0 | 0.00 | 0.00 | 0.00 | 45 | 1017.0 |
| 20260507010617 | 57 | 248 | 5.0 | 8.0 | 0.00 | 0.00 | 0.00 | 44 | 1016.9 |
| 20260507005617 | 58 | 270 | 6.0 | 8.0 | 0.00 | 0.00 | 0.00 | 43 | 1017.2 |
| 20260507004637 | 59 | 248 | 4.0 | 6.0 | 0.00 | 0.00 | 0.00 | 41 | 1017.1 |
| 20260507003617 | 59 | 270 | 4.0 | 8.0 | 0.00 | 0.00 | 0.00 | 39 | 1017.1 |
| 20260507002617 | 59 | 248 | 1.0 | 4.0 | 0.00 | 0.00 | 0.00 | 38 | 1017.1 |
| 20260507001616 | 59 | 315 | 2.0 | 6.0 | 0.00 | 0.00 | 0.00 | 37 | 1017.1 |
| 20260507000617 | 60 | 270 | 2.0 | 5.0 | 0.00 | 0.00 | 0.00 | 37 | 1017.3 |
| 20260506235616 | 60 | 293 | 6.0 | 9.0 | 0.00 | 0.00 | 0.00 | 36 | 1017.4 |
| 20260506234616 | 59 | 270 | 3.0 | 7.0 | 0.00 | 0.00 | 0.00 | 36 | 1017.2 |
| 20260506233617 | 58 | 315 | 3.0 | 5.0 | 0.00 | 0.00 | 0.00 | 36 | 1017.4 |
| 20260506232617 | 58 | 293 | 3.0 | 6.0 | 0.00 | 0.00 | 0.00 | 36 | 1017.5 |
| 20260506231616 | 59 | 293 | 3.0 | 6.0 | 0.00 | 0.00 | 0.00 | 36 | 1017.3 |
| 20260506230617 | 60 | 315 | 5.0 | 8.0 | 0.00 | 0.00 | 0.00 | 34 | 1017.5 |
| 20260506225617 | 60 | 315 | 8.0 | 11.0 | 0.00 | 0.00 | 0.00 | 34 | 1017.5 |
| 20260506224617 | 60 | 248 | 2.0 | 6.0 | 0.00 | 0.00 | 0.00 | 35 | 1017.6 |
| 20260506223617 | 60 | 248 | 4.0 | 7.0 | 0.00 | 0.00 | 0.00 | 34 | 1017.7 |
| 20260506222616 | 60 | 293 | 5.0 | 11.0 | 0.00 | 0.00 | 0.00 | 35 | 1017.7 |
| 20260506221616 | 59 | 315 | 2.0 | 5.0 | 0.00 | 0.00 | 0.00 | 36 | 1017.8 |
| 20260506220616 | 59 | 293 | 5.0 | 12.0 | 0.00 | 0.00 | 0.00 | 35 | 1017.9 |
| 20260506215617 | 59 | 315 | 3.0 | 7.0 | 0.00 | 0.00 | 0.00 | 36 | 1018.0 |
| 20260506214616 | 59 | 90 | 1.0 | 4.0 | 0.00 | 0.00 | 0.00 | 36 | 1017.9 |
| 20260506213616 | 58 | 315 | 5.0 | 8.0 | 0.00 | 0.00 | 0.00 | 36 | 1018.2 |
| 20260506212616 | 58 | 315 | 6.0 | 9.0 | 0.00 | 0.00 | 0.00 | 36 | 1018.3 |
| 20260506211616 | 58 | 293 | 3.0 | 5.0 | 0.00 | 0.00 | 0.00 | 37 | 1018.4 |
| 20260506210616 | 58 | 338 | 4.0 | 6.0 | 0.00 | 0.00 | 0.00 | 35 | 1018.6 |
| 20260506205616 | 57 | 315 | 5.0 | 9.0 | 0.00 | 0.00 | 0.00 | 36 | 1018.7 |
| 20260506204616 | 58 | 315 | 6.0 | 9.0 | 0.00 | 0.00 | 0.00 | 38 | 1019.0 |
| 20260506203616 | 57 | 315 | 4.0 | 6.0 | 0.00 | 0.00 | 0.00 | 36 | 1019.0 |
| 20260506202636 | 58 | 248 | 4.0 | 7.0 | 0.00 | 0.00 | 0.00 | 35 | 1019.1 |
| 20260506201616 | 57 | 293 | 4.0 | 7.0 | 0.00 | 0.00 | 0.00 | 38 | 1019.3 |
| 20260506200616 | 57 | 293 | 3.0 | 7.0 | 0.00 | 0.00 | 0.00 | 37 | 1019.3 |
| 20260506195616 | 58 | 293 | 4.0 | 7.0 | 0.00 | 0.00 | 0.00 | 38 | 1019.6 |
| 20260506194616 | 57 | 315 | 8.0 | 12.0 | 0.00 | 0.00 | 0.00 | 36 | 1019.6 |
| 20260506193616 | 57 | 315 | 5.0 | 9.0 | 0.00 | 0.00 | 0.00 | 37 | 1019.7 |
| 20260506192616 | 57 | 315 | 8.0 | 15.0 | 0.00 | 0.00 | 0.00 | 38 | 1019.8 |
| 20260506191616 | 57 | 315 | 4.0 | 7.0 | 0.00 | 0.00 | 0.00 | 38 | 1019.9 |
| 20260506190636 | 56 | 315 | 2.0 | 6.0 | 0.00 | 0.00 | 0.00 | 41 | 1019.9 |
| 20260506185616 | 55 | 315 | 3.0 | 6.0 | 0.00 | 0.00 | 0.00 | 39 | 1020.1 |
| 20260506184616 | 55 | 315 | 8.0 | 12.0 | 0.00 | 0.00 | 0.00 | 39 | 1020.1 |
| 20260506183616 | 55 | 270 | 3.0 | 5.0 | 0.00 | 0.00 | 0.00 | 40 | 1020.3 |
| 20260506182616 | 55 | 293 | 2.0 | 3.0 | 0.00 | 0.00 | 0.00 | 41 | 1020.4 |
| 20260506181616 | 55 | 315 | 7.0 | 9.0 | 0.00 | 0.00 | 0.00 | 40 | 1020.5 |
| 20260506180616 | 55 | 293 | 3.0 | 14.0 | 0.00 | 0.00 | 0.00 | 41 | 1020.6 |
| 20260506175616 | 55 | 315 | 8.0 | 13.0 | 0.00 | 0.00 | 0.00 | 41 | 1020.6 |
| 20260506174616 | 54 | 315 | 3.0 | 8.0 | 0.00 | 0.00 | 0.00 | 40 | 1020.8 |
| 20260506173616 | 54 | 270 | 5.0 | 11.0 | 0.00 | 0.00 | 0.00 | 42 | 1020.9 |
| 20260506172636 | 53 | 293 | 2.0 | 4.0 | 0.00 | 0.00 | 0.00 | 43 | 1020.9 |
| 20260506171636 | 53 | 338 | 3.0 | 6.0 | 0.00 | 0.00 | 0.00 | 41 | 1021.0 |
| 20260506170616 | 53 | 270 | 1.0 | 4.0 | 0.00 | 0.00 | 0.00 | 45 | 1021.0 |
| 20260506165616 | 52 | 315 | 3.0 | 4.0 | 0.00 | 0.00 | 0.00 | 42 | 1020.9 |
| 20260506164616 | 54 | 315 | 4.0 | 6.0 | 0.00 | 0.00 | 0.00 | 41 | 1021.1 |
| 20260506163616 | 53 | 270 | 3.0 | 8.0 | 0.00 | 0.00 | 0.00 | 42 | 1021.1 |
| 20260506162616 | 54 | 315 | 3.0 | 6.0 | 0.00 | 0.00 | 0.00 | 39 | 1021.3 |
| 20260506161615 | 53 | 315 | 3.0 | 6.0 | 0.00 | 0.00 | 0.00 | 40 | 1021.4 |
| 20260506160616 | 52 | 338 | 3.0 | 8.0 | 0.00 | 0.00 | 0.00 | 43 | 1021.2 |
| 20260506155616 | 51 | 315 | 2.0 | 4.0 | 0.00 | 0.00 | 0.00 | 40 | 1021.3 |
| 20260506154615 | 52 | 293 | 4.0 | 8.0 | 0.00 | 0.00 | 0.00 | 44 | 1021.3 |
| 20260506153616 | 51 | 270 | 1.0 | 2.0 | 0.00 | 0.00 | 0.00 | 44 | 1021.2 |
| 20260506152615 | 51 | 338 | 1.0 | 3.0 | 0.00 | 0.00 | 0.00 | 43 | 1021.2 |
| 20260506151636 | 50 | 315 | 3.0 | 8.0 | 0.00 | 0.00 | 0.00 | 45 | 1021.1 |
| 20260506150636 | 50 | 315 | 5.0 | 8.0 | 0.00 | 0.00 | 0.00 | 45 | 1021.1 |
| 20260506145616 | 50 | 315 | 1.0 | 2.0 | 0.00 | 0.00 | 0.00 | 44 | 1021.1 |
| 20260506144616 | 50 | 293 | 1.0 | 3.0 | 0.00 | 0.00 | 0.00 | 44 | 1021.1 |
| 20260506143616 | 49 | 315 | 3.0 | 4.0 | 0.00 | 0.00 | 0.00 | 46 | 1021.1 |
| 20260506142616 | 49 | 315 | 1.0 | 2.0 | 0.00 | 0.00 | 0.00 | 47 | 1021.1 |
| 20260506141615 | 48 | 293 | 1.0 | 2.0 | 0.00 | 0.00 | 0.00 | 51 | 1020.9 |
| 20260506140615 | 48 | 315 | 1.0 | 2.0 | 0.00 | 0.00 | 0.00 | 52 | 1020.9 |
| 20260506135615 | 47 | 293 | 1.0 | 2.0 | 0.00 | 0.00 | 0.00 | 54 | 1020.9 |
| 20260506134616 | 47 | 0.0 | 1.0 | 0.00 | 0.00 | 0.00 | 54 | 1020.9 | |
| 20260506133616 | 46 | 0.0 | 0.0 | 0.00 | 0.00 | 0.00 | 56 | 1020.8 | |
| 20260506132615 | 46 | 315 | 2.0 | 3.0 | 0.00 | 0.00 | 0.00 | 57 | 1020.7 |
| 20260506131615 | 45 | 0.0 | 1.0 | 0.00 | 0.00 | 0.00 | 59 | 1020.5 | |
| 20260506130615 | 44 | 293 | 1.0 | 1.0 | 0.00 | 0.00 | 0.00 | 62 | 1020.3 |
| 20260506125635 | 44 | 293 | 1.0 | 2.0 | 0.00 | 0.00 | 0.00 | 60 | 1020.1 |
| 20260506124615 | 44 | 315 | 2.0 | 3.0 | 0.00 | 0.00 | 0.00 | 61 | 1020.1 |
| 20260506123635 | 43 | 0.0 | 1.0 | 0.00 | 0.00 | 0.00 | 63 | 1019.9 | |
| 20260506122615 | 43 | 293 | 1.0 | 2.0 | 0.00 | 0.00 | 0.00 | 61 | 1019.8 |
| 20260506121615 | 43 | 0.0 | 1.0 | 0.00 | 0.00 | 0.00 | 62 | 1019.7 | |
| 20260506120618 | 42 | 0.0 | 1.0 | 0.00 | 0.00 | 0.00 | 63 | 1019.7 | |
| 20260506115615 | 42 | 0.0 | 0.0 | 0.00 | 0.00 | 0.00 | 65 | 1019.5 | |
| 20260506114637 | 42 | 0.0 | 1.0 | 0.00 | 0.00 | 0.00 | 64 | 1019.4 | |
| 20260506113617 | 42 | 0.0 | 0.0 | 0.00 | 0.00 | 0.00 | 63 | 1019.4 | |
| 20260506112617 | 42 | 0.0 | 0.0 | 0.00 | 0.00 | 0.00 | 63 | 1019.3 | |
| 20260506111617 | 42 | 0.0 | 0.0 | 0.00 | 0.00 | 0.00 | 63 | 1019.2 | |
| 20260506110617 | 42 | 0.0 | 0.0 | 0.00 | 0.00 | 0.00 | 64 | 1019.0 | |
| 20260506105617 | 41 | 0.0 | 0.0 | 0.00 | 0.00 | 0.00 | 64 | 1018.9 | |
| 20260506104617 | 41 | 0.0 | 0.0 | 0.00 | 0.00 | 0.00 | 64 | 1018.9 | |
| 20260506103617 | 41 | 0.0 | 0.0 | 0.00 | 0.00 | 0.00 | 64 | 1018.8 | |
| 20260506102617 | 41 | 0.0 | 0.0 | 0.00 | 0.00 | 0.00 | 64 | 1018.8 | |
| 20260506101617 | 41 | 0.0 | 0.0 | 0.00 | 0.00 | 0.00 | 64 | 1018.6 | |
| 20260506100617 | 42 | 0.0 | 0.0 | 0.00 | 0.00 | 0.00 | 64 | 1018.6 | |
| 20260506095637 | 42 | 0.0 | 0.0 | 0.00 | 0.00 | 0.00 | 62 | 1018.7 | |
| 20260506094617 | 42 | 0.0 | 0.0 | 0.00 | 0.00 | 0.00 | 62 | 1018.6 | |
| 20260506093618 | 42 | 0.0 | 0.0 | 0.00 | 0.00 | 0.00 | 62 | 1018.6 | |
| 20260506092617 | 43 | 0.0 | 0.0 | 0.00 | 0.00 | 0.00 | 62 | 1018.5 | |
| 20260506091617 | 43 | 0.0 | 0.0 | 0.00 | 0.00 | 0.00 | 61 | 1018.5 | |
| 20260506090617 | 43 | 0.0 | 0.0 | 0.00 | 0.00 | 0.00 | 60 | 1018.4 | |
| 20260506085617 | 42 | 0.0 | 0.0 | 0.00 | 0.00 | 0.00 | 61 | 1018.3 |